Regional Weather Roundup
Issued by NWS

Home | Current Version | Previous Version | Graphics & Text | Print | Product List | Glossary On
Versions: 1 2 3 4 5 6 7 8 9 10 11 12 13 14 15 16 17 18 19 20 21 22 23 24 25 26 27 28 29 30 31 32 33 34 35 36 37 38 39 40 41 42 43 44 45 46 47 48 49 50
000
ASUS45 KSLC 261010
RWRUT

UTAH REGIONAL WEATHER ROUNDUP
NATIONAL WEATHER SERVICE SALT LAKE CITY UT
400 AM MDT WED APR 26 2017

UTZ001>011-023>025-261100-

NORTHERN UTAH

CITY           SKY/WX    TMP DP  RH WIND       PRES   REMARKS
BRIGHAM CITY   PTCLDY    47  33  58 SW8       29.88F
HILL AFB       CLOUDY    40  32  73 SE8       29.89F WCI  35
LOGAN          PTCLDY    42  37  82 NE7       29.88F
OGDEN          MOCLDY    40  33  76 S10       29.89F WCI  33
SALT LAKE CITY MOCLDY    42  36  79 SE9       29.90F
TOOELE VALLEY  CLEAR     37  32  81 S8        29.91S WCI  31
WENDOVER       MOCLDY    48  27  44 W8        29.90F
HEBER CITY     PTCLDY    30  28  93 CALM      29.92F
WEST JORDAN    MOCLDY    43  40  88 SW6       29.92S

$$

UTZ011>015-024>027-261100-

CENTRAL/NORTHEAST UTAH

CITY           SKY/WX    TMP DP  RH WIND       PRES   REMARKS
PROVO AIRPORT  MOCLDY    36  31  82 CALM      29.94F
MOAB/CANYONLAN PTCLDY    39  32  76 W6        29.89S WCI  35
DELTA          PTCLDY    32  28  86 E6        29.94F WCI  26
PRICE          CLEAR     39  26  59 NW7       29.91F WCI  34
RICHFIELD      CLEAR     27  27 100 CALM      29.99S
ROOSEVELT      MOCLDY    36  30  80 CALM      29.92S
VERNAL         CLOUDY    34  29  82 SW3       29.90S

$$

UTZ013>016-019>022-027-261100-

SOUTHERN UTAH

CITY           SKY/WX    TMP DP  RH WIND       PRES   REMARKS
BRYCE CANYON   PTCLDY    22  16  78 NW8       29.99F WCI  12
CEDAR CITY     PTCLDY    32  22  66 CALM      29.95F
MILFORD        PTCLDY    31  24  75 SW5       29.94F WCI  26
ST GEORGE      MOSUNNY   48  21  34 SE6       29.93R
HANKSVILLE     CLEAR     36  21  55 CALM      29.94R
KANAB          CLEAR     32  19  59 W7        30.00S WCI  26
BLANDING       CLEAR     34  21  59 W3        29.97S

$$

REGIONAL REPORTS     COLORADO/ARIZONA

CITY           SKY/WX    TMP DP  RH WIND       PRES   REMARKS
CRAIG, CO      CLOUDY    30  25  81 CALM      29.91F
GRAND JUNCTION CLEAR     37  36  96 CALM      29.92R
RIFLE, CO      CLOUDY    33  30  88 S6        29.93R WCI  28
MONTROSE, CO   CLOUDY    38  33  82 NE5       29.94S WCI  34
CORTEZ, CO     CLEAR     31  26  82 E5        29.91R WCI  26
COLORADO CITY    N/A     30  21  69 E5        29.99S WCI  25
PAGE, AZ       CLEAR     49  21  33 W3        29.91S
GRAND CANYON   CLEAR     23  14  68 NE5       29.98S WCI  17
KINGMAN, AZ    CLEAR     43  19  38 SE3       29.92R
FLAGSTAFF, AZ  CLEAR     26  15  63 CALM      29.97S

$$

REGIONAL REPORTS    NEVADA/IDAHO/WYOMING

CITY           SKY/WX    TMP DP  RH WIND       PRES   REMARKS
LAS VEGAS, NV  MOCLDY    61  16  17 S5        29.87R
ELY, NY        MOCLDY    32  23  69 S7        29.97F WCI  26
ELKO, NV       CLOUDY    45  31  58 W7        29.93F
POCATELLO, ID  CLOUDY    43  31  62 SW14      29.86F
BURLEY, ID     CLOUDY    45  31  58 SW8       29.86F
FORT BRIDGER,    N/A     33  29  83 SW10      29.92F WCI  25
EVANSTON, WY   CLOUDY    31  29  92 SW10      29.90F WCI  22
ROCK SPRINGS,  CLOUDY    33  30  88 SW12      29.88S WCI  24
KEMMERER, WY     N/A     30  28  93 CALM      29.89F

$$



USA.gov is the U.S. government's official web portal to all federal, state and local government web resources and services.